Regional Weather Roundup
Issued by NWS Sioux Falls, SD

Home | Current Version | Previous Version | Text Only | Print | Product List | Glossary On
Versions: 1 2 3 4 5 6 7 8 9 10 11 12 13 14 15 16 17 18 19 20 21 22 23 24 25 26 27 28 29 30 31 32 33 34 35 36 37 38 39 40 41 42 43 44 45 46 47 48 49 50
000
ASUS43 KFSD 171410
RWRFSD

WEATHER ROUNDUP FOR SE SOUTH DAKOTA/SW MINNESOTA/NW IOWA
NATIONAL WEATHER SERVICE SIOUX FALLS SD
900 AM CDT WED SEP 17 2014

NOTE: "FAIR" INDICATES FEW OR NO CLOUDS BELOW 12,000 FEET WITH NO
SIGNIFICANT WEATHER AND OR OBSTRUCTIONS TO VISIBILITY.


SDZ038>040-050-052>070-171500-
SOUTHEAST SOUTH DAKOTA

CITY           SKY/WX    TMP DP  RH WIND       PRES   REMARKS
CHAMBERLAIN    FOG       51  51 100 CALM      29.93R VSB<1/4
HURON          MOSUNNY   53  49  86 CALM      29.92S
MADISON        FAIR      50  50 100 CALM      29.94R
MITCHELL       SUNNY     54  52  93 SW3       29.93R
SIOUX FALLS    MOSUNNY   58  51  78 VRB3      29.93S
WINNER         FAIR      58  53  84 CALM      29.92R
YANKTON        SUNNY     54  52  94 CALM      29.92S
$$

MNZ071-072-080-081-089-090-097-098-171500-
SOUTHWEST MINNESOTA

CITY           SKY/WX    TMP DP  RH WIND       PRES   REMARKS
FAIRMONT       MOSUNNY   54  46  76 S5        29.95S
JACKSON        MOSUNNY   55  48  76 S6        29.96R
LUVERNE        MOSUNNY   54  50  87 CALM      29.94S
MARSHALL       SUNNY     57  48  72 CALM      29.92S
MONTEVIDEO     SUNNY     61  55  82 CALM      29.93S
PIPESTONE      SUNNY     55  52  88 CALM      29.93S
REDWOOD FALLS  SUNNY     57  51  80 S5        29.93S
TRACY          SUNNY     58  52  80 CALM      29.94R
WINDOM         MOSUNNY   55  50  82 S3        29.94S
WORTHINGTON    SUNNY     55  50  82 S3        29.95S
$$

IAZ001>003-012>014-020>022-031-032-NEZ013-014-SDZ071-171500-
NORTHWEST IOWA

CITY           SKY/WX    TMP DP  RH WIND       PRES   REMARKS
CHEROKEE       SUNNY     56  54  93 CALM      29.94S
DENISON        SUNNY     57  55  94 CALM      29.93R
ESTHERVILLE    MOSUNNY   50  48  93 S6        29.95F
LE MARS        SUNNY     57  54  88 CALM      29.94S
ORANGE CITY    SUNNY     57  52  82 S3        29.94R
SHELDON        SUNNY     55  54  94 SE5       29.93S
SIOUX CITY     SUNNY     60  54  80 SE3       29.94R
SPENCER        MOSUNNY   54  49  83 SE3       29.95S
STORM LAKE     SUNNY     57  55  94 CALM      29.94S
$$

ABBREVIATIONS USED IN REMARKS
   TC - TEMPERATURE IN CELSIUS
  WCI - WIND CHILL INDEX
   HX - HEAT INDEX
  VSB - VISIBILITY




USA.gov is the U.S. government's official web portal to all federal, state and local government web resources and services.